Preview of NWS' New Version of Forecast
This preview is not operational and should not be used for support decisions.

Regional Weather Roundup (RWR)

Issued by Shreveport, LA (SHV)

                            
000
ASUS44 KSHV 200910
RWRSHV

WEATHER ROUNDUP FOR THE FOUR STATE AREA
NATIONAL WEATHER SERVICE SHREVEPORT LA
300 AM CST WED FEB 20 2019

NOTE:  "FAIR" INDICATES FEW OR NO CLOUDS BELOW 12000 FEET
WITH NO SIGNIFICANT WEATHER AND/OR OBSTRUCTIONS TO VISIBILITY.

!LAZ001-LAZ014-TXZ097-201000
SHREVEPORT...MONROE...TEXARKANA RADIOS
  
CITY           SKY/WX    TMP DP  RH WIND       PRES   REMARKS
SHREVEPORT     NOT AVBL                                               
MONROE         LGT RAIN  46  45  96 N7        29.83F FOG              
NATCHITOCHES   CLOUDY    44  44  99 NW12      29.86R FOG              
TEXARKANA      CLOUDY    39  38  96 CALM      29.88F                  
$$

!LAZ001-LAZ014-TXZ097-201000
OTHER LOCATIONS...
  
CITY           SKY/WX    TMP DP  RH WIND       PRES   REMARKS
DOWNTOWN SHV   NOT AVBL                                               
BOSSIER CITY   CLOUDY    37  37 100 NE8       29.86F WCI  31          
RUSTON         CLOUDY    40  38  95 CALM      29.89R FOG              
LITTLE ROCK    CLOUDY    38  37  97 SE6       29.86F WCI  33          
EL DORADO      CLOUDY    38  37  97 NW8       29.90R FOG     WCI  32  
JACKSON        CLOUDY    61  60  97 S12       29.84F THUNDER FOG      
NEW ORLEANS    FOG       71  71 100 S12       29.90F VSB 3/4          
HOUSTON        LGT RAIN  46  46 100 NW7       29.90R FOG              
LUFKIN         LGT RAIN  40  40 100 NW5       29.89S                  
TYLER          CLOUDY    40  38  93 NW3       29.90R                  
DAL FT WORTH   CLOUDY    38  34  85 NW15      29.93R WCI  29          
$$


!TXZ136-TXZ165-201000
TYLER...LUFKIN RADIOS
  
CITY           SKY/WX    TMP DP  RH WIND       PRES   REMARKS
TYLER          CLOUDY    40  38  93 NW3       29.90R                  
GILMER         CLOUDY    38  37  98 MISG      29.90S THUNDER          
LONGVIEW       LGT RAIN  39  39 100 W6        29.91R WCI  35          
LUFKIN         LGT RAIN  40  40 100 NW5       29.89S                  
$$

!TXZ136-TXZ165-201000
OTHER LOCATIONS...
  
CITY           SKY/WX    TMP DP  RH WIND       PRES   REMARKS
NACOGDOCHES    CLOUDY    40  40 100 NW6       29.90R                  
BEAUMONT       LGT RAIN  53  51  93 NW9       29.83R FOG              
HOUSTON        LGT RAIN  46  46 100 NW7       29.90R FOG              
COLLEGE STN    CLOUDY    42  42 100 NW7       29.93R                  
AUSTIN         CLOUDY    44  39  82 N7        29.93F                  
DAL FT WORTH   CLOUDY    38  34  85 NW15      29.93R WCI  29          
TEXARKANA      CLOUDY    39  38  96 CALM      29.88F                  
SHREVEPORT     NOT AVBL                                               
FORT POLK      CLOUDY    48  48  98 NW10      29.83R FOG              
LAKE CHARLES     N/A    N/A N/A N/A MISG      29.81S                  
$$